Regional Weather Roundup
Issued by NWS Raleigh/Durham, NC

Home | Current Version | Previous Version | Text Only | Print | Product List | Glossary On
Versions: 1 2 3 4 5 6 7 8 9 10 11 12 13 14 15 16 17 18 19 20 21 22 23 24 25 26 27 28 29 30 31 32 33 34 35 36 37 38 39 40 41 42 43 44 45 46 47 48 49 50
000
ASUS42 KRAH 162110
RWRRAH
NORTH CAROLINA WEATHER ROUNDUP
NATIONAL WEATHER SERVICE RALEIGH NC
500 PM EDT TUE SEP 16 2014

NOTE: "FAIR" INDICATES FEW OR NO CLOUDS BELOW 12,000 FEET WITH NO
SIGNIFICANT WEATHER AND/OR OBSTRUCTIONS TO VISIBILITY.

NCZ001-053-055-056-065-067-162200-
WESTERN NORTH CAROLINA

CITY           SKY/WX    TMP DP  RH WIND       PRES   REMARKS
ASHEVILLE      MOSUNNY   80  63  55 N10       30.03F
JEFFERSON      MOSUNNY   72  57  60 W8        30.08F
MORGANTON      SUNNY     83  64  51 SW7       30.01F
HICKORY        PTSUNNY   83  65  54 SW8       29.97F
RUTHERFORDTON  MOSUNNY   80  67  64 CALM      29.97F
MOUNT AIRY     PTSUNNY   75  72  89 E5        30.01R
BOONE          MOSUNNY   70  58  64 W13G23    30.09F
$$

NCZ021-022-025-041-071-084-088-162200-
CENTRAL NORTH CAROLINA

CITY           SKY/WX    TMP DP  RH WIND       PRES   REMARKS
CHARLOTTE      MOSUNNY   85  65  51 W3        29.96F
GREENSBORO     PTSUNNY   81  64  57 SE7       29.95F THUNDER
WINSTON-SALEM  MOSUNNY   83  62  49 VRB7      29.97F
RALEIGH-DURHAM MOSUNNY   81  63  54 NE5       29.96F
FORT BRAGG     SUNNY     85  67  55 E8        29.95F
FAYETTEVILLE   SUNNY     86  66  51 N3        29.95F
BURLINGTON     PTSUNNY   82  63  52 SE5       29.95F
LAURINBURG     MOSUNNY   84  66  54 CALM      29.95F
$$

NCZ011-015-027-028-043-044-047-080-103-162200-
NORTHEASTERN NORTH CAROLINA

CITY           SKY/WX    TMP DP  RH WIND       PRES   REMARKS
ROCKY MT-WILSO CLOUDY    80  63  55 NW5       29.97S
GREENVILLE     MOSUNNY   82  64  54 CALM      29.98S
WASHINGTON     MOSUNNY   82  65  56 CALM      29.96S
ELIZABETH CITY CLOUDY    79  64  60 E8        29.96S
MANTEO         SUNNY     78  67  69 NE9       29.96S
CAPE HATTERAS  SUNNY     78  69  73 SW5       29.95F
$$

NCZ078-087-090-091-093-098-101-162200-
SOUTHEASTERN NORTH CAROLINA

CITY           SKY/WX    TMP DP  RH WIND       PRES   REMARKS
LUMBERTON      SUNNY     85  66  53 E7        29.94F
GOLDSBORO      PTSUNNY   82  68  62 CALM      29.94F
KINSTON        MOSUNNY   82  64  54 NW5       29.96F
KENANSVILLE    SUNNY     83  63  50 CALM      29.97F
NEW BERN       SUNNY     87  65  47 W6        29.96S
CHERRY POINT   PTSUNNY   83  72  69 S8        29.95F
BEAUFORT       SUNNY     80  72  76 SW8       29.95F
JACKSONVILLE   SUNNY     83  72  69 S7        29.94F
WILMINGTON     MOSUNNY   80  71  74 SE7       29.95F
$$




USA.gov is the U.S. government's official web portal to all federal, state and local government web resources and services.